Location: Kalberh�ni
(46.4610°N, 7.2453°E)
Time: 02:41:50
(UTC+00:00)

USA 267 - Pass Details

Date: 20 June 2021
Orbit: 1102 x 1106 km, 123.0° (Epoch: 24 July)

Event Time Altitude Azimuth Distance (km) Brightness Sun altitude
Exits shadow 22:46:49 - 112° (ESE) 3,179 5.4 -19.3°
Reaches altitude 10° 22:47:24 10° 112° (ESE) 2,956 5.2 -19.3°
Maximum altitude 22:53:53 69° 30° (NNE) 1,174 3.5 -19.5°
Drops below altitude 10° 23:00:23 10° 309° (NW) 2,968 6.2 -19.7°
Sets 23:02:52 0° 308° (NW) 3,928 6.8 -19.8°
